$Date,$Time,DM0201B,DM0203B,DM0205B,DM0207B,DM0209B
01/06/99,00:00:01,0,0,0,0,0
01/06/99,00:05:01,142,163,-6,371,962
01/06/99,00:10:01,113,166,-6,314,962
01/06/99,00:15:01,119,174,-6,316,962
01/06/99,00:20:01,152,182,-6,464,962
01/06/99,00:25:01,159,170,-6,572,962
01/06/99,00:30:01,95,173,-6,398,962
01/06/99,00:35:01,149,172,-6,522,962
01/06/99,00:40:01,177,172,-6,518,962
01/06/99,00:45:01,124,175,-6,525,962
01/06/99,00:50:01,131,174,-6,379,962
01/06/99,00:55:01,147,169,-6,373,962
01/06/99,01:00:01,135,169,-6,349,962
01/06/99,01:05:01,132,171,-5,303,962
01/06/99,01:10:01,148,160,-5,297,962
01/06/99,01:15:01,138,164,-5,270,962
01/06/99,01:20:01,153,160,-5,260,962
01/06/99,01:25:01,169,161,-6,272,962
01/06/99,01:30:01,203,176,-6,271,962
01/06/99,01:35:01,199,177,-6,264,962
01/06/99,01:40:01,207,191,-7,237,960
01/06/99,01:45:01,192,179,-6,220,960
01/06/99,01:50:01,171,205,-7,210,960
01/06/99,01:55:01,147,188,-7,204,960
01/06/99,02:00:01,252,172,-7,209,960
01/06/99,02:05:01,280,172,-6,215,960
01/06/99,02:10:01,282,162,-6,224,960
01/06/99,02:15:01,275,164,-6,216,960
01/06/99,02:20:01,269,174,-7,197,960
01/06/99,02:25:01,254,172,-7,197,960
01/06/99,02:30:01,264,172,-6,211,960
01/06/99,02:35:01,302,173,-6,238,960
01/06/99,02:40:01,304,173,-6,244,960
01/06/99,02:45:01,300,161,-6,246,960
01/06/99,02:50:01,265,171,-6,248,960
01/06/99,02:55:01,232,171,-6,254,960
01/06/99,03:00:01,266,171,-6,253,960
01/06/99,03:05:01,276,171,-6,243,960
01/06/99,03:10:01,239,174,-6,239,960
01/06/99,03:15:01,223,168,-7,237,960
01/06/99,03:20:01,275,169,-6,225,960
01/06/99,03:25:01,262,169,-6,225,960
01/06/99,03:30:01,254,178,-7,223,960
01/06/99,03:35:01,288,161,-7,213,960
01/06/99,03:40:01,316,162,-7,209,960
01/06/99,03:45:01,309,173,-6,215,960
01/06/99,03:50:01,294,172,-6,218,960
01/06/99,03:55:01,268,172,-6,240,960
01/06/99,04:00:01,273,172,-6,256,960
01/06/99,04:05:01,280,172,-6,267,960
01/06/99,04:10:01,271,172,-6,231,960
01/06/99,04:15:01,245,172,-6,233,960
01/06/99,04:20:01,221,162,-6,195,960
01/06/99,04:25:01,209,162,-6,184,960
01/06/99,04:30:01,182,162,-6,186,960
01/06/99,04:35:01,165,176,-6,212,960
01/06/99,04:40:01,140,170,-6,223,960
01/06/99,04:45:01,152,173,-6,225,960
01/06/99,04:50:01,37,225,-6,193,960
01/06/99,04:55:01,109,284,-7,216,960
01/06/99,05:00:01,94,304,-7,158,960
01/06/99,05:05:01,114,294,-7,156,960
01/06/99,05:10:01,121,273,-7,172,960
01/06/99,05:15:01,112,283,-7,163,960
01/06/99,05:20:01,90,295,-7,149,960
01/06/99,05:25:01,129,284,-7,158,960
01/06/99,05:30:01,111,284,-7,142,960
01/06/99,05:35:01,106,284,-7,121,960
01/06/99,05:40:01,83,302,-7,133,960
01/06/99,05:45:01,92,288,-7,149,960
01/06/99,05:50:01,80,296,-7,132,960
01/06/99,05:55:01,105,297,-7,134,960
01/06/99,06:00:01,89,304,-7,132,960
01/06/99,06:05:01,92,290,-7,137,960
01/06/99,06:10:01,84,293,-7,141,960
01/06/99,06:15:01,91,296,-7,154,960
01/06/99,06:20:01,101,291,-7,154,960
01/06/99,06:25:01,72,289,-7,142,958
01/06/99,06:30:01,87,297,-7,137,958
01/06/99,06:35:01,69,297,-7,139,958
01/06/99,06:40:01,53,301,-7,137,958
01/06/99,06:45:01,81,290,-7,127,958
01/06/99,06:50:01,95,297,-7,133,958
01/06/99,06:55:01,96,299,-7,129,958
01/06/99,07:00:01,81,296,-8,123,958
01/06/99,07:05:01,80,308,-7,122,958
01/06/99,07:10:01,94,284,-8,104,958
01/06/99,07:15:01,125,284,-7,117,958
01/06/99,07:20:01,94,274,-7,128,958
01/06/99,07:25:01,86,272,-7,129,958
01/06/99,07:30:01,54,234,-7,119,958
01/06/99,07:35:01,86,268,-7,115,958
01/06/99,07:40:01,148,267,-7,103,958
01/06/99,07:45:01,187,209,-7,102,958
01/06/99,07:50:01,88,209,-7,98,958
01/06/99,07:55:01,170,165,-6,87,958
01/06/99,08:00:01,184,210,-6,89,958
01/06/99,08:05:01,277,184,-5,95,958
01/06/99,08:10:01,269,180,-5,93,958
01/06/99,08:15:01,254,197,-5,87,958
01/06/99,08:20:01,276,185,-5,85,958
01/06/99,08:25:01,277,210,-5,79,958
01/06/99,08:30:01,383,189,-5,74,956
01/06/99,08:35:01,314,207,-5,72,956
01/06/99,08:40:01,321,202,-5,72,956
01/06/99,08:45:01,324,193,-5,72,956
01/06/99,08:50:01,435,193,-6,74,956
01/06/99,08:55:01,412,193,-6,76,956
01/06/99,09:00:01,350,193,-6,78,956
01/06/99,09:05:01,408,193,-6,78,956
01/06/99,09:10:01,423,193,-6,78,956
01/06/99,09:15:01,428,193,-6,78,956
01/06/99,09:20:01,483,193,-5,76,956
01/06/99,09:25:01,374,181,-6,76,956
01/06/99,09:30:01,402,181,-6,72,956
01/06/99,09:35:01,381,181,-6,80,956
01/06/99,09:40:01,436,179,-6,82,956
01/06/99,09:45:01,479,168,-6,86,956
01/06/99,09:50:01,381,179,-6,86,956
01/06/99,09:55:01,467,180,-6,90,956
01/06/99,10:00:01,447,180,-7,92,956
01/06/99,10:05:01,424,180,-7,98,956
01/06/99,10:10:01,386,180,-7,107,956
01/06/99,10:15:01,365,180,-7,116,956
01/06/99,10:20:01,319,180,-7,137,956
01/06/99,10:25:01,335,180,-7,171,956
01/06/99,10:30:01,362,180,-6,210,956
01/06/99,10:35:01,369,181,-6,227,956
01/06/99,10:40:01,379,181,-6,222,956
01/06/99,10:45:01,343,169,-6,224,956
01/06/99,10:50:01,300,168,-6,228,956
01/06/99,10:55:01,350,169,-6,198,956
01/06/99,11:00:01,335,159,-6,255,956
01/06/99,11:05:01,352,172,-6,291,956
01/06/99,11:10:01,401,162,-6,152,956
01/06/99,11:15:01,361,162,-7,152,956
01/06/99,11:20:01,384,162,-7,120,956
01/06/99,11:25:01,367,162,-7,116,956
01/06/99,11:30:01,397,162,-8,102,956
01/06/99,11:35:01,409,173,-8,97,956
01/06/99,11:40:01,419,169,-8,95,956
01/06/99,11:45:01,436,169,-8,101,956
01/06/99,11:50:01,377,169,-8,98,956
01/06/99,11:55:01,382,169,-8,87,956
01/06/99,12:00:01,396,171,-8,83,956
01/06/99,12:05:01,408,181,-9,78,956
01/06/99,12:10:01,388,181,-9,79,956
01/06/99,12:15:01,388,181,-9,76,956
01/06/99,12:20:01,358,171,-9,76,956
01/06/99,12:25:01,366,182,-9,77,956
01/06/99,12:30:01,374,172,-9,84,956
01/06/99,12:35:01,308,172,-9,82,956
01/06/99,12:40:01,351,172,-9,72,956
01/06/99,12:45:01,289,172,-9,76,956
01/06/99,12:50:01,351,162,-9,81,956
01/06/99,12:55:01,349,164,-9,93,956
01/06/99,13:00:01,381,164,-9,89,956
01/06/99,13:05:01,309,162,-9,109,956
01/06/99,13:10:01,378,162,-9,119,956
01/06/99,13:15:01,411,163,-9,119,956
01/06/99,13:20:01,362,163,-9,110,956
01/06/99,13:25:01,398,168,-9,124,956
01/06/99,13:30:01,448,168,-9,129,956
01/06/99,13:35:01,449,168,-9,125,956
01/06/99,13:40:01,358,169,-9,120,956
01/06/99,13:45:01,322,160,-9,99,956
01/06/99,13:50:01,358,148,-9,85,958
01/06/99,13:55:01,355,157,-9,92,958
01/06/99,14:00:01,335,161,-9,118,958
01/06/99,14:05:01,331,161,-9,90,958
01/06/99,14:10:01,293,154,-9,89,958
01/06/99,14:15:01,247,156,-9,110,958
01/06/99,14:20:01,280,154,-9,93,958
01/06/99,14:25:01,245,140,-9,103,958
01/06/99,14:30:01,281,166,-9,111,958
01/06/99,14:35:01,310,166,-9,95,958
01/06/99,14:40:01,318,166,-9,100,958
01/06/99,14:45:01,316,166,-9,123,958
01/06/99,14:50:01,322,166,-9,123,958
01/06/99,14:55:01,302,166,-9,114,958
01/06/99,15:00:01,286,166,-9,108,958
01/06/99,15:05:01,331,166,-9,117,958
01/06/99,15:10:01,299,166,-9,130,958
01/06/99,15:15:01,341,166,-9,119,958
01/06/99,15:20:01,312,166,-9,132,958
01/06/99,15:25:01,321,166,-9,156,958
01/06/99,15:30:01,300,166,-9,151,958
01/06/99,15:35:01,329,166,-9,153,958
01/06/99,15:40:01,304,166,-9,151,958
01/06/99,15:45:01,348,166,-9,170,958
01/06/99,15:50:01,341,166,-9,189,958
01/06/99,15:55:01,316,166,-9,254,958
01/06/99,16:00:01,297,166,-9,336,958
01/06/99,16:05:01,313,166,-8,294,958
01/06/99,16:10:01,321,156,-8,363,958
01/06/99,16:15:01,342,166,-8,265,958
01/06/99,16:20:01,308,166,-8,234,958
01/06/99,16:25:01,279,165,-8,219,958
01/06/99,16:30:01,263,165,-8,293,958
01/06/99,16:35:01,267,155,-8,228,958
01/06/99,16:40:01,259,155,-8,172,958
01/06/99,16:45:01,261,155,-8,159,958
01/06/99,16:50:01,243,155,-9,175,958
01/06/99,16:55:01,217,165,-9,171,958
01/06/99,17:00:01,235,165,-9,162,958
01/06/99,17:05:01,218,165,-9,192,958
01/06/99,17:10:01,241,155,-8,180,958
01/06/99,17:15:01,234,155,-8,165,958
01/06/99,17:20:01,215,155,-8,171,958
01/06/99,17:25:01,203,167,-8,183,958
01/06/99,17:30:01,176,156,-8,166,958
01/06/99,17:35:01,179,133,-8,175,958
01/06/99,17:40:01,185,135,-8,179,958
01/06/99,17:45:01,224,145,-8,198,958
01/06/99,17:50:01,121,141,-8,196,958
01/06/99,17:55:01,147,159,-8,183,958
01/06/99,18:00:01,138,151,-8,170,958
01/06/99,18:05:01,212,156,-8,171,958
01/06/99,18:10:01,162,174,-8,180,958
01/06/99,18:15:01,174,180,-8,199,960
01/06/99,18:20:01,139,167,-8,249,960
01/06/99,18:25:01,191,169,-8,205,960
01/06/99,18:30:01,122,169,-8,219,960
01/06/99,18:35:01,200,162,-8,223,960
01/06/99,18:40:01,177,162,-8,196,960
01/06/99,18:45:01,172,162,-8,181,960
01/06/99,18:50:01,207,167,-8,207,960
01/06/99,18:55:01,163,161,-8,242,960
01/06/99,19:00:01,190,156,-8,267,960
01/06/99,19:05:01,160,150,-8,268,960
01/06/99,19:10:01,164,145,-8,304,960
01/06/99,19:15:01,177,159,-8,288,960
01/06/99,19:20:01,197,155,-8,275,960
01/06/99,19:25:01,176,165,-7,314,960
01/06/99,19:30:01,127,157,-8,280,960
01/06/99,19:35:01,196,166,-7,288,960
01/06/99,19:40:01,187,157,-8,330,960
01/06/99,19:45:01,171,138,-7,293,960
01/06/99,19:50:01,178,160,-7,298,960
01/06/99,19:55:01,190,164,-7,325,960
01/06/99,20:00:01,177,164,-7,360,960
01/06/99,20:05:01,205,164,-7,461,960
01/06/99,20:10:01,190,162,-7,342,960
01/06/99,20:15:01,206,156,-7,293,960
01/06/99,20:20:01,196,170,-7,294,960
01/06/99,20:25:01,85,168,-7,294,960
01/06/99,20:30:01,185,168,-7,276,960
01/06/99,20:35:01,153,162,-7,297,960
01/06/99,20:40:01,120,168,-7,339,960
01/06/99,20:45:01,182,167,-7,382,960
01/06/99,20:50:01,162,170,-7,492,960
01/06/99,20:55:01,159,166,-7,623,960
01/06/99,21:00:01,193,172,-6,454,960
01/06/99,21:05:01,165,149,-7,332,960
01/06/99,21:10:01,152,161,-7,329,960
01/06/99,21:15:01,224,159,-7,375,960
01/06/99,21:20:01,185,156,-7,389,960
01/06/99,21:25:01,178,167,-7,532,960
01/06/99,21:30:01,155,154,-6,637,960
01/06/99,21:35:01,210,158,-6,600,960
01/06/99,21:40:01,83,123,-6,530,960
01/06/99,21:45:01,121,109,-6,436,960
01/06/99,21:50:01,121,137,-6,600,960
01/06/99,21:55:01,161,125,-6,613,960
01/06/99,22:00:01,140,118,-5,639,960
01/06/99,22:05:01,135,118,-5,666,960
01/06/99,22:10:01,24,116,-5,714,960
01/06/99,22:15:01,10,187,-5,504,960
01/06/99,22:20:01,102,109,-5,471,960
01/06/99,22:25:01,108,101,-5,480,960
01/06/99,22:30:01,55,127,-5,475,960
01/06/99,22:35:01,54,87,-5,444,960
01/06/99,22:40:01,103,150,-5,420,960
01/06/99,22:45:01,37,218,-5,385,960
01/06/99,22:50:01,150,125,-5,402,960
01/06/99,22:55:01,171,114,-5,468,960
01/06/99,23:00:01,187,112,-5,400,960
01/06/99,23:05:01,205,127,-6,342,960
01/06/99,23:10:01,152,116,-5,331,960
01/06/99,23:15:01,123,135,-6,340,960
01/06/99,23:20:01,161,130,-6,339,960
01/06/99,23:25:01,146,140,-6,344,960
01/06/99,23:30:01,130,130,-6,396,960
01/06/99,23:35:01,112,132,-5,423,960
01/06/99,23:40:01,147,136,-5,408,960
01/06/99,23:45:01,135,138,-5,420,960
01/06/99,23:50:01,174,147,-5,411,960
01/06/99,23:55:01,137,147,-5,389,960
01/07/99,00:00:01,117,187,-6,432,960
